ARGOS Delta rocket - Orbit

View from above orbital plane
View from above orbital plane
View from above satellite
View from above satellite

Ground track
Ground track

The orbit data is extracted from the following two-line orbital elements,

1 25637U 99008D   13168.20742311  .00000090  00000-0  30846-4 0  2175
2 25637 096.4623 031.9987 0143795 246.0956 222.9975 14.45412196754462
Epoch (UTC): 17 June 2013 04:58:41
Eccentricity: 0.0143795
inclination: 96.4623°
perigee height: 638 km
apogee height: 843 km
right ascension of ascending node: 31.9987°
argument of perigee: 246.0956°
revolutions per day: 14.45412196
mean anomaly at epoch: 222.9975°
orbit number at epoch: 75446

The dashed part of the orbit path shows where the satellite is in the earth's shadow,  

Developed and maintained by Chris Peat, Heavens-Above GmbH. Please read the updated FAQ before sending e-mail. Imprint. DLR